Weather History for KHLN - February, 2014

Change the Weather History Date:

Saturday, February 1, 2014

  Actual Average Record
Temperature  
Mean Temperature 14 °F 25 °F  
Max Temperature 23 °F 36 °F 62 °F (1934)
Min Temperature 4 °F 15 °F -41 °F (1893)
Degree Days  
Heating Degree Days 51 40  
Month to date heating degree days 51 40  
Since 1 July heating degree days 4215 4558  
Cooling Degree Days 0 0  
Month to date cooling degree days 0 0  
Year to date cooling degree days 0 0  
Moisture  
Dew Point 5 °F    
Average Humidity 66    
Maximum Humidity 80    
Minimum Humidity 52    
Precipitation  
Precipitation 0.00 in 0.01 in 0.17 in (1963)
Month to date precipitation 0.00 0.01  
Year to date precipitation 0.55 0.37  
Snow  
Snow 0.00 in 0.20 in 2.70 in (1957)
Month to date snowfall 0.0 0.2  
Since 1 July snowfall 11.5 22.5  
Snow Depth 1.00 in    
Sea Level Pressure  
Sea Level Pressure 30.26 in    
Wind  
Wind Speed 4 mph (NW)    
Max Wind Speed 12 mph    
Max Gust Speed 14 mph    
Visibility 10 miles    
Events      
T = Trace of Precipitation, MM = Missing Value Source: NWS Daily Summary

Daily Weather History Graph

Daily Weather History Graph

Search for Another Location

Airport or City:

Trip Planner

Search our weather history database for the weather conditions in past years. The results will help you decide how hot, cold, wet, or windy it might be!

Date:

Astronomy

Feb. 01, 2014 Rise Set
Actual Time 7:51 AM MST 5:32 PM MST
Civil Twilight 7:19 AM MST 6:04 PM MST
Nautical Twilight 6:43 AM MST 6:40 PM MST
Astronomical Twilight 6:07 AM MST 7:15 PM MST
Moon 8:32 AM MST (2/1) 8:24 PM MST (2/1)
Length of Visible Light 10h 44m
Length of Day
9h 40m
Waxing Crescent, 5% of the Moon is Illuminated
Feb 1
Waxing Crescent
Feb 6
First Quarter
Feb 14
Full
Feb 22
Last Quarter
Mar 1
New

Hourly Weather History & Observations

Time (MST) Temp. Windchill Dew Point Humidity Pressure Visibility Wind Dir Wind Speed Gust Speed Precip Events Conditions
12:53 AM 15.1 °F 4.2 °F 8.1 °F 74% 30.22 in 10.0 mi West 8.1 mph - N/A   Overcast
1:53 AM 14.0 °F 0.5 °F 8.1 °F 77% 30.23 in 10.0 mi West 11.5 mph - N/A   Overcast
2:53 AM 14.0 °F 3.9 °F 8.1 °F 77% 30.25 in 10.0 mi West 6.9 mph - N/A   Overcast
3:53 AM 14.0 °F 5.1 °F 6.1 °F 71% 30.26 in 10.0 mi WNW 5.8 mph - N/A   Overcast
4:53 AM 14.0 °F 2.9 °F 7.0 °F 74% 30.27 in 10.0 mi NW 8.1 mph - N/A   Overcast
5:53 AM 12.9 °F 3.8 °F 5.0 °F 71% 30.28 in 10.0 mi West 5.8 mph - N/A   Overcast
6:53 AM 12.0 °F 2.7 °F 3.9 °F 70% 30.30 in 10.0 mi NNW 5.8 mph - N/A   Overcast
7:53 AM 12.0 °F 2.7 °F 3.9 °F 70% 30.31 in 10.0 mi West 5.8 mph - N/A   Overcast
8:53 AM 12.0 °F - 3.9 °F 70% 30.32 in 10.0 mi Calm Calm - N/A   Overcast
9:53 AM 16.0 °F - 5.0 °F 62% 30.31 in 10.0 mi Calm Calm - N/A   Clear
10:53 AM 17.1 °F - 3.9 °F 56% 30.31 in 10.0 mi Calm Calm - N/A   Clear
11:53 AM 16.0 °F 7.4 °F 5.0 °F 62% 30.30 in 10.0 mi East 5.8 mph - N/A   Clear
12:53 PM 16.0 °F 3.6 °F 5.0 °F 62% 30.27 in 10.0 mi ESE 10.4 mph - N/A   Clear
1:53 PM 18.0 °F 7.7 °F 8.1 °F 65% 30.25 in 10.0 mi East 8.1 mph - N/A   Clear
2:53 PM 21.0 °F - 6.1 °F 53% 30.22 in 10.0 mi Calm Calm - N/A   Clear
3:53 PM 21.0 °F - 6.1 °F 53% 30.22 in 10.0 mi Calm Calm - N/A   Clear
4:53 PM 19.0 °F - 6.1 °F 57% 30.22 in 10.0 mi Calm Calm - N/A   Clear
5:53 PM 15.1 °F - 6.1 °F 68% 30.23 in 10.0 mi Calm Calm - N/A   Clear
6:53 PM 10.9 °F 4.7 °F 5.0 °F 77% 30.25 in 10.0 mi North 3.5 mph - N/A   Clear
7:53 PM 10.9 °F 4.7 °F 5.0 °F 77% 30.25 in 10.0 mi West 3.5 mph - N/A   Clear
8:53 PM 9.0 °F - 3.0 °F 77% 30.26 in 10.0 mi Calm Calm - N/A   Clear
9:53 PM 6.1 °F -0.9 °F 1.0 °F 80% 30.27 in 10.0 mi NNW 3.5 mph - N/A   Clear
10:53 PM 7.0 °F - 1.9 °F 80% 30.26 in 10.0 mi Calm Calm - N/A   Clear
11:53 PM 6.1 °F - 1.0 °F 80% 30.27 in 10.0 mi Calm Calm - N/A   Clear